IZ1UQG-N2 Weather Reports


Display with metric or nautical units.
time (UTC)temp
F
wind
direction
speed
MPH
gust
MPH
rain 1hr
in
rain 24hr
in
rain mn
in
humidity
%
barometer
mb
20260507101845 63 83 6.0 10.0 0.00 0.12 0.00 58 1011.6
20260507101745 64 85 6.0 10.0 0.00 0.12 0.00 59 1011.6
20260507101645 64 86 6.0 10.0 0.00 0.12 0.00 58 1011.6
20260507101544 64 88 6.0 10.0 0.00 0.12 0.00 58 1011.6
20260507101444 64 90 6.0 10.0 0.00 0.12 0.00 59 1011.6
20260507101346 63 90 6.0 10.0 0.00 0.12 0.00 59 1011.6
20260507101246 63 90 6.0 10.0 0.00 0.12 0.00 58 1011.7
20260507101146 64 90 6.0 10.0 0.00 0.12 0.00 58 1011.6
20260507101045 63 90 6.0 10.0 0.00 0.12 0.00 58 1011.6
20260507100945 64 92 5.0 10.0 0.00 0.12 0.00 58 1011.6
20260507100845 64 94 5.0 10.0 0.00 0.12 0.00 57 1011.6
20260507100745 64 96 4.0 9.0 0.00 0.12 0.00 58 1011.7
20260507100645 64 95 4.0 9.0 0.00 0.12 0.00 58 1011.7
20260507100545 64 94 4.0 9.0 0.00 0.12 0.00 58 1011.6
20260507100445 64 92 4.0 9.0 0.00 0.12 0.00 59 1011.6
20260507100345 64 89 4.0 9.0 0.00 0.12 0.00 59 1011.6
20260507100244 64 88 4.0 8.0 0.00 0.12 0.00 58 1011.7
20260507100146 64 86 4.0 8.0 0.00 0.12 0.00 59 1011.7
20260507100046 64 86 4.0 9.0 0.00 0.12 0.00 59 1011.8
20260507095945 63 84 4.0 9.0 0.00 0.12 0.00 59 1011.7
20260507095844 63 84 4.0 9.0 0.00 0.12 0.00 59 1011.7
20260507095744 63 85 4.0 9.0 0.00 0.12 0.00 59 1011.8
20260507095646 63 84 5.0 9.0 0.00 0.12 0.00 59 1011.8
20260507095546 62 82 5.0 9.0 0.00 0.12 0.00 60 1011.8
20260507095446 62 81 5.0 9.0 0.00 0.12 0.00 61 1011.7
20260507095345 62 81 5.0 9.0 0.00 0.12 0.00 60 1011.8
20260507095245 62 83 6.0 9.0 0.00 0.12 0.00 59 1011.9
20260507095144 62 85 6.0 9.0 0.00 0.12 0.00 60 1011.9
20260507095045 62 83 6.0 9.0 0.00 0.12 0.00 59 1011.9
20260507094945 62 82 6.0 9.0 0.00 0.12 0.00 60 1011.9
20260507094845 62 82 6.0 9.0 0.00 0.12 0.00 59 1011.8
20260507094745 62 80 6.0 9.0 0.00 0.12 0.00 58 1011.9
20260507094645 62 80 5.0 9.0 0.00 0.12 0.00 58 1011.9
20260507094545 62 81 6.0 9.0 0.00 0.12 0.00 58 1011.9
20260507094445 62 81 5.0 9.0 0.00 0.12 0.00 60 1011.8
20260507094345 62 81 5.0 9.0 0.00 0.12 0.00 59 1011.8
20260507094245 62 80 5.0 9.0 0.00 0.12 0.00 58 1011.8
20260507094144 62 76 4.0 9.0 0.00 0.12 0.00 59 1011.9
20260507094044 62 76 4.0 9.0 0.00 0.12 0.00 61 1011.9
20260507093944 62 78 4.0 9.0 0.00 0.12 0.00 60 1011.9
20260507093845 62 79 4.0 9.0 0.00 0.12 0.00 61 1011.8
20260507093745 62 75 3.0 9.0 0.00 0.12 0.00 60 1011.9
20260507093645 62 76 3.0 9.0 0.00 0.12 0.00 61 1011.8
20260507093545 62 77 3.0 8.0 0.00 0.12 0.00 61 1011.9
20260507093445 62 80 3.0 8.0 0.00 0.12 0.00 61 1011.8
20260507093344 62 84 3.0 8.0 0.00 0.12 0.00 61 1011.9
20260507093246 62 86 4.0 8.0 0.00 0.12 0.00 61 1011.9
20260507093145 62 90 4.0 8.0 0.00 0.12 0.00 61 1011.8
20260507093045 62 95 4.0 8.0 0.00 0.12 0.00 60 1011.8
20260507092945 62 96 4.0 8.0 0.00 0.12 0.00 60 1011.8
20260507092845 62 99 4.0 8.0 0.00 0.12 0.00 60 1011.7
20260507092745 62 100 4.0 8.0 0.00 0.12 0.00 60 1011.8
20260507092645 62 98 4.0 8.0 0.00 0.12 0.00 59 1011.7
20260507092545 62 102 4.0 8.0 0.00 0.12 0.00 59 1011.7
20260507092445 62 102 4.0 8.0 0.00 0.12 0.00 59 1011.7
20260507092344 62 103 4.0 8.0 0.00 0.12 0.00 60 1011.8
20260507092244 62 101 4.0 9.0 0.00 0.12 0.00 60 1011.8
20260507092146 62 99 4.0 9.0 0.00 0.12 0.00 60 1011.8
20260507092045 62 94 3.0 9.0 0.00 0.12 0.00 59 1011.8
20260507091945 62 89 3.0 9.0 0.00 0.12 0.00 62 1011.8
20260507091845 62 87 3.0 9.0 0.00 0.12 0.00 61 1011.8
20260507091745 62 91 3.0 9.0 0.00 0.12 0.00 61 1011.7
20260507091645 62 91 3.0 9.0 0.00 0.12 0.00 60 1011.8
20260507091545 62 90 3.0 9.0 0.00 0.12 0.00 62 1011.7
20260507091445 62 92 3.0 9.0 0.00 0.12 0.00 62 1011.7
20260507091345 62 96 2.0 9.0 0.00 0.12 0.00 61 1011.7
20260507091245 62 100 2.0 6.0 0.00 0.12 0.00 62 1011.7
20260507091144 62 105 2.0 6.0 0.00 0.12 0.00 62 1011.7
20260507091044 62 113 2.0 6.0 0.00 0.12 0.00 62 1011.7
20260507090944 62 113 2.0 6.0 0.00 0.12 0.00 62 1011.8
20260507090846 62 110 2.0 6.0 0.00 0.12 0.00 61 1011.7
20260507090746 62 104 1.0 4.0 0.00 0.12 0.00 61 1011.7
20260507090645 62 111 1.0 4.0 0.00 0.12 0.00 61 1011.8
20260507090544 62 104 2.0 7.0 0.00 0.12 0.00 63 1011.8
20260507090444 62 97 2.0 7.0 0.00 0.12 0.00 64 1011.7
20260507090344 62 90 2.0 7.0 0.00 0.12 0.00 65 1011.8
20260507090245 62 90 2.0 7.0 0.00 0.12 0.00 66 1011.7
20260507090145 61 90 2.0 7.0 0.00 0.12 0.00 66 1011.8
20260507090045 61 87 2.0 7.0 0.00 0.12 0.00 65 1011.8
20260507085944 61 88 2.0 7.0 0.00 0.12 0.00 66 1011.8
20260507085846 61 88 1.0 7.0 0.00 0.12 0.00 65 1011.8
20260507085746 61 87 1.0 7.0 0.00 0.12 0.00 65 1011.8
20260507085645 62 77 1.0 7.0 0.00 0.12 0.00 66 1011.9
20260507085545 61 68 1.0 7.0 0.00 0.12 0.00 67 1011.8
20260507085445 61 40 1.0 3.0 0.00 0.12 0.00 68 1011.8
20260507085345 61 35 0.0 2.0 0.00 0.12 0.00 68 1011.8
20260507085245 60 31 0.0 2.0 0.00 0.12 0.00 67 1011.8
20260507085145 61 28 0.0 2.0 0.00 0.12 0.00 66 1011.8
20260507085044 61 13 0.0 2.0 0.00 0.12 0.00 66 1011.8
20260507084944 61 350 0.0 3.0 0.00 0.12 0.00 66 1011.8
20260507084845 61 335 0.0 3.0 0.00 0.12 0.00 67 1011.8
20260507084745 61 331 1.0 3.0 0.00 0.12 0.00 67 1011.9
20260507084645 61 322 1.0 3.0 0.00 0.12 0.00 68 1011.9
20260507084545 60 326 1.0 3.0 0.00 0.12 0.00 68 1011.8
20260507084445 60 327 1.0 3.0 0.00 0.12 0.00 69 1011.8
20260507084345 60 328 1.0 3.0 0.00 0.12 0.00 70 1011.9
20260507084245 60 328 1.0 3.0 0.00 0.12 0.00 69 1011.9
20260507084146 59 332 1.0 3.0 0.00 0.12 0.00 69 1012.0
20260507084046 59 339 1.0 3.0 0.00 0.12 0.00 69 1011.8
20260507083945 59 345 1.0 3.0 0.00 0.12 0.00 69 1011.9
20260507083845 60 350 1.0 3.0 0.00 0.12 0.00 68 1011.8
20260507083745 60 353 1.0 4.0 0.00 0.12 0.00 69 1011.8
20260507083644 60 3 1.0 4.0 0.00 0.12 0.00 69 1011.8
20260507083544 60 6 2.0 4.0 0.00 0.12 0.00 69 1011.8
20260507083444 60 4 2.0 4.0 0.00 0.12 0.00 68 1011.8
20260507083346 60 3 2.0 4.0 0.00 0.12 0.00 68 1011.9
20260507083245 60 4 2.0 4.0 0.00 0.12 0.00 68 1011.8
20260507083145 59 2 2.0 4.0 0.00 0.12 0.00 68 1011.9
20260507083044 59 358 2.0 4.0 0.00 0.12 0.00 68 1011.8
20260507082944 59 359 2.0 4.0 0.00 0.12 0.00 69 1011.9
20260507082846 59 5 2.0 4.0 0.00 0.12 0.00 69 1011.9
20260507082746 59 9 2.0 4.0 0.00 0.12 0.00 68 1011.9
20260507082645 59 11 2.0 4.0 0.00 0.12 0.00 68 1011.9
20260507082545 59 13 2.0 4.0 0.00 0.12 0.00 69 1011.9
20260507082445 59 13 2.0 4.0 0.00 0.12 0.00 69 1011.9
20260507082344 59 13 2.0 4.0 0.00 0.12 0.00 69 1011.9
20260507082246 58 12 2.0 4.0 0.00 0.12 0.00 69 1011.9
20260507082145 58 13 2.0 6.0 0.00 0.12 0.00 69 1011.9
20260507082045 58 9 2.0 6.0 0.00 0.12 0.00 69 1011.9
20260507081945 58 3 2.0 6.0 0.00 0.12 0.00 69 1011.9
20260507081845 58 357 3.0 7.0 0.00 0.12 0.00 69 1011.9
20260507081744 58 353 3.0 7.0 0.00 0.12 0.00 68 1011.9
20260507081646 59 349 3.0 7.0 0.00 0.12 0.00 69 1011.9
20260507081546 58 347 3.0 7.0 0.00 0.12 0.00 69 1012.0
20260507081444 58 346 3.0 7.0 0.00 0.12 0.00 68 1012.0
20260507081346 58 346 3.0 7.0 0.00 0.12 0.00 68 1012.0
20260507081246 58 347 3.0 7.0 0.00 0.12 0.00 68 1012.0
20260507081145 58 347 3.0 7.0 0.00 0.12 0.00 68 1011.9
20260507081045 58 346 3.0 7.0 0.00 0.12 0.00 67 1011.9
20260507080945 58 346 3.0 8.0 0.00 0.12 0.00 69 1011.9
20260507080845 58 348 3.0 8.0 0.00 0.12 0.00 70 1011.9
20260507080745 58 348 3.0 8.0 0.00 0.12 0.00 70 1011.9
20260507080646 58 349 3.0 8.0 0.00 0.12 0.00 70 1011.9
20260507080545 58 349 3.0 8.0 0.00 0.12 0.00 70 1011.9
20260507080445 58 349 3.0 8.0 0.00 0.12 0.00 69 1012.0
20260507080345 58 349 3.0 8.0 0.00 0.12 0.00 70 1011.9
20260507080245 58 348 4.0 8.0 0.00 0.12 0.00 69 1012.0
20260507080144 58 346 3.0 8.0 0.00 0.12 0.00 70 1012.0
20260507080044 57 349 4.0 8.0 0.00 0.12 0.00 70 1012.0
20260507075944 57 352 4.0 8.0 0.00 0.12 0.00 69 1012.0
20260507075846 57 351 4.0 8.0 0.00 0.12 0.00 71 1011.9
20260507075746 57 352 4.0 8.0 0.00 0.12 0.00 70 1012.0
20260507075645 57 354 4.0 8.0 0.00 0.12 0.00 71 1012.1
20260507075545 57 356 4.0 8.0 0.00 0.12 0.00 71 1012.0
20260507075445 56 1 4.0 8.0 0.00 0.12 0.00 71 1012.1
20260507075345 56 2 4.0 8.0 0.00 0.12 0.00 72 1012.1
20260507075245 56 4 4.0 8.0 0.00 0.12 0.00 72 1012.1
20260507075145 56 5 4.0 8.0 0.00 0.12 0.00 73 1012.1
20260507075044 56 5 4.0 8.0 0.00 0.12 0.00 73 1012.1
20260507074944 56 6 4.0 7.0 0.00 0.12 0.00 73 1012.0
20260507074844 56 8 4.0 7.0 0.00 0.12 0.00 73 1012.0
20260507074746 56 10 4.0 7.0 0.00 0.12 0.00 74 1012.0
20260507074645 56 9 4.0 7.0 0.00 0.12 0.00 73 1012.1
20260507074545 56 10 4.0 7.0 0.00 0.12 0.00 73 1012.1
20260507074445 56 8 3.0 7.0 0.00 0.12 0.00 73 1012.1
20260507074345 56 8 3.0 7.0 0.00 0.12 0.00 73 1012.1
20260507074245 56 11 3.0 7.0 0.00 0.12 0.00 74 1012.0
20260507074145 56 16 3.0 6.0 0.00 0.12 0.00 74 1012.1
20260507074045 56 18 3.0 6.0 0.00 0.12 0.00 74 1012.1
20260507073945 56 18 3.0 6.0 0.00 0.12 0.00 75 1012.1
20260507073845 56 18 3.0 6.0 0.00 0.12 0.00 75 1012.0
20260507073745 56 20 3.0 6.0 0.00 0.12 0.00 75 1012.1
20260507073644 56 27 2.0 6.0 0.00 0.12 0.00 75 1012.1
20260507073544 56 24 2.0 4.0 0.00 0.12 0.00 76 1012.2
20260507073444 56 25 2.0 4.0 0.00 0.12 0.00 77 1012.2
20260507073344 55 24 2.0 4.0 0.00 0.12 0.00 76 1012.2
20260507073245 55 21 2.0 4.0 0.00 0.12 0.00 77 1012.2
20260507073145 55 16 2.0 6.0 0.00 0.12 0.00 78 1012.3
20260507073045 55 10 2.0 6.0 0.00 0.12 0.00 78 1012.3
20260507072944 55 11 2.0 6.0 0.00 1.44 0.00 77 1012.3
20260507072844 55 9 2.0 6.0 0.00 1.44 0.00 78 1012.3
20260507072745 55 3 3.0 6.0 0.00 1.44 0.00 77 1012.3
20260507072645 55 356 2.0 6.0 0.00 1.44 0.00 79 1012.3
20260507072545 55 355 2.0 6.0 0.00 1.44 0.00 79 1012.3
20260507072445 55 353 2.0 6.0 0.00 1.48 0.00 79 1012.3
20260507072345 54 353 2.0 6.0 0.00 1.48 0.00 79 1012.2
20260507072245 54 350 2.0 6.0 0.00 1.48 0.00 78 1012.3
20260507072145 55 350 2.0 7.0 0.00 1.48 0.00 78 1012.3
20260507072045 55 348 2.0 7.0 0.00 1.48 0.00 79 1012.1
20260507071945 55 343 2.0 7.0 0.00 1.48 0.00 79 1012.2
20260507071845 55 341 2.0 7.0 0.00 1.48 0.00 79 1012.2
20260507071745 55 341 2.0 7.0 0.00 1.48 0.00 80 1012.3
20260507071646 54 344 2.0 7.0 0.00 1.48 0.00 80 1012.3
20260507071545 54 345 3.0 7.0 0.00 1.48 0.00 80 1012.3
20260507071445 54 348 3.0 7.0 0.00 1.48 0.00 80 1012.4
20260507071345 54 349 3.0 7.0 0.00 1.48 0.00 80 1012.4
20260507071245 54 350 3.0 7.0 0.00 1.48 0.00 79 1012.4
20260507071144 54 349 4.0 8.0 0.00 1.48 0.00 80 1012.3
20260507071044 54 352 4.0 8.0 0.00 1.48 0.00 81 1012.3
20260507070944 54 356 4.0 8.0 0.00 1.48 0.00 81 1012.3
20260507070846 54 358 4.0 8.0 0.00 1.48 0.00 81 1012.4
20260507070746 53 359 4.0 8.0 0.00 1.48 0.00 81 1012.3
20260507070644 53 1 4.0 8.0 0.00 1.48 0.00 81 1012.3
20260507070544 53 1 4.0 8.0 0.00 1.48 0.00 82 1012.2
20260507070444 53 359 4.0 8.0 0.00 1.51 0.00 81 1012.3
20260507070346 53 359 3.0 8.0 0.00 1.51 0.00 82 1012.3
20260507070244 53 359 3.0 8.0 0.00 1.51 0.00 82 1012.3
20260507070146 53 2 3.0 7.0 0.00 1.51 0.00 82 1012.3
20260507070046 53 359 3.0 7.0 0.00 1.51 0.00 82 1012.3
20260507065945 53 358 3.0 7.0 0.00 1.51 0.00 82 1012.2
20260507065845 53 1 3.0 8.0 0.00 1.51 0.00 82 1012.2
20260507065745 53 359 3.0 9.0 0.00 1.51 0.00 82 1012.2
20260507065644 53 359 3.0 9.0 0.00 1.51 0.00 82 1012.2
20260507065544 53 357 3.0 9.0 0.00 1.51 0.00 82 1012.1
20260507065444 53 358 3.0 9.0 0.00 1.51 0.00 82 1012.1
20260507065344 53 356 3.0 9.0 0.00 1.51 0.00 82 1012.2
20260507065244 53 354 3.0 9.0 0.00 1.51 0.00 82 1012.2
20260507065146 53 354 4.0 9.0 0.00 1.51 0.00 82 1012.1
20260507065045 53 353 4.0 9.0 0.00 1.51 0.00 82 1012.1
20260507064945 53 350 4.0 9.0 0.00 1.51 0.00 82 1012.1
20260507064845 53 349 4.0 9.0 0.00 1.51 0.00 82 1012.1
20260507064744 53 349 4.0 9.0 0.00 1.51 0.00 83 1012.2
20260507064644 53 349 4.0 9.0 0.00 1.51 0.00 83 1012.2
20260507064544 53 353 4.0 9.0 0.00 1.51 0.00 83 1012.1
20260507064445 53 355 5.0 9.0 0.00 1.51 0.00 83 1012.1
20260507064345 53 356 5.0 9.0 0.00 1.51 0.00 83 1012.1
20260507064244 53 357 4.0 9.0 0.00 1.51 0.00 83 1012.2
20260507064145 53 358 4.0 9.0 0.00 1.51 0.00 83 1012.2
20260507064045 52 1 4.0 9.0 0.00 1.51 0.00 83 1012.2
20260507063945 52 3 4.0 9.0 0.00 1.51 0.00 83 1012.2
20260507063845 52 4 3.0 9.0 0.00 1.51 0.00 83 1012.2
20260507063745 52 5 3.0 9.0 0.00 1.51 0.00 83 1012.3
20260507063645 52 9 3.0 8.0 0.00 1.51 0.00 82 1012.2
20260507063544 52 8 3.0 8.0 0.00 1.51 0.00 84 1012.2
20260507063444 52 8 2.0 4.0 0.00 1.51 0.00 84 1012.2
20260507063344 52 9 2.0 4.0 0.00 1.51 0.00 84 1012.2
20260507063245 52 10 2.0 4.0 0.00 1.51 0.00 84 1012.1
20260507063145 52 7 3.0 4.0 0.00 1.51 0.00 84 1012.1
20260507063045 52 6 3.0 4.0 0.00 1.51 0.00 84 1012.1
20260507062944 52 7 2.0 4.0 0.00 1.16 0.00 85 1012.1
20260507062844 52 1 2.0 6.0 0.00 1.16 0.00 85 1012.1
20260507062744 52 3 2.0 6.0 0.00 1.16 0.00 85 1012.1
20260507062645 52 4 3.0 6.0 0.00 1.16 0.00 85 1012.1
20260507062545 52 8 3.0 6.0 0.00 1.16 0.00 85 1012.1
20260507062445 52 8 3.0 6.0 0.00 1.20 0.00 85 1012.1
20260507062345 52 6 3.0 6.0 0.00 1.20 0.00 86 1012.1
20260507062246 52 5 3.0 6.0 0.00 1.20 0.00 86 1012.1
20260507062145 52 8 3.0 6.0 0.00 1.20 0.00 87 1012.0
20260507062045 51 10 3.0 6.0 0.00 1.20 0.00 87 1012.1
20260507061945 51 10 3.0 6.0 0.00 1.20 0.00 87 1012.0
20260507061845 51 11 3.0 6.0 0.00 1.20 0.00 86 1012.1
20260507061745 51 8 3.0 6.0 0.00 1.20 0.00 86 1012.0
20260507061645 51 5 3.0 6.0 0.00 1.20 0.00 86 1012.0
20260507061545 51 1 3.0 6.0 0.00 1.20 0.00 87 1012.0
20260507061444 51 358 3.0 6.0 0.00 1.24 0.00 86 1012.0
20260507061344 51 355 2.0 6.0 0.00 1.24 0.00 86 1012.1
20260507061244 51 353 3.0 6.0 0.00 1.24 0.00 86 1012.1
20260507061145 51 352 3.0 6.0 0.00 1.24 0.00 87 1012.0
20260507061045 51 348 3.0 6.0 0.00 1.24 0.00 87 1011.9
20260507060945 51 348 3.0 6.0 0.00 1.28 0.00 87 1011.9
20260507060844 51 349 3.0 6.0 0.00 1.28 0.00 87 1012.0
20260507060744 51 350 2.0 6.0 0.00 1.28 0.00 87 1012.0
20260507060646 51 351 3.0 6.0 0.00 1.28 0.00 87 1012.0
20260507060545 51 353 3.0 6.0 0.00 1.28 0.00 87 1012.0
20260507060445 51 355 3.0 6.0 0.00 1.28 0.00 87 1012.0
20260507060345 51 357 2.0 6.0 0.00 1.28 0.00 87 1012.0
20260507060244 51 359 2.0 6.0 0.00 1.28 0.00 87 1012.0
20260507060144 51 359 2.0 4.0 0.00 1.28 0.00 87 1012.0
20260507060044 51 2 1.0 4.0 0.00 1.28 0.00 87 1012.0
20260507055945 51 4 1.0 4.0 0.00 1.32 0.00 88 1012.0
20260507055845 51 5 1.0 4.0 0.00 1.32 0.00 88 1012.0
20260507055745 51 6 1.0 3.0 0.00 1.32 0.00 87 1012.0
20260507055644 51 2 1.0 3.0 0.00 1.32 0.00 87 1012.0
20260507055544 51 2 1.0 3.0 0.00 1.32 0.00 88 1012.0
20260507055444 51 5 1.0 3.0 0.00 1.36 0.00 89 1012.0
20260507055346 51 7 1.0 3.0 0.00 1.36 0.00 89 1012.0
20260507055245 51 8 1.0 3.0 0.00 1.36 0.00 89 1012.0
20260507055145 51 8 1.0 3.0 0.00 1.36 0.00 89 1012.0
20260507055045 50 7 1.0 3.0 0.00 1.36 0.00 89 1012.0
20260507054945 50 5 1.0 3.0 0.00 1.40 0.00 89 1012.0
20260507054845 50 5 1.0 3.0 0.00 1.40 0.00 88 1012.0
20260507054745 50 7 1.0 3.0 0.00 1.40 0.00 89 1012.1
20260507054644 50 13 1.0 3.0 0.00 1.40 0.00 89 1012.1
20260507054544 50 11 1.0 6.0 0.00 1.40 0.00 88 1012.0
20260507054446 50 4 1.0 6.0 0.00 1.40 0.00 88 1011.9
20260507054346 50 1 1.0 6.0 0.00 1.40 0.00 88 1011.9
20260507054245 51 1 1.0 6.0 0.00 1.40 0.00 88 1011.8
20260507054144 51 1 1.0 6.0 0.00 1.40 0.00 89 1011.9
20260507054044 51 359 1.0 6.0 0.00 1.40 0.00 89 1011.9
20260507053944 51 358 1.0 6.0 0.00 1.40 0.00 89 1011.9
20260507053845 51 358 1.0 6.0 0.00 1.40 0.00 89 1011.9
20260507053745 51 357 1.0 6.0 0.00 1.40 0.00 89 1011.9
20260507053645 51 356 1.0 6.0 0.00 1.40 0.00 89 1011.9
20260507053544 51 356 1.0 4.0 0.00 1.40 0.00 89 1012.0
20260507053444 51 355 1.0 3.0 0.00 1.40 0.00 90 1011.9
20260507053344 50 353 1.0 3.0 0.00 1.40 0.00 90 1011.8
20260507053245 50 355 1.0 3.0 0.00 1.40 0.00 90 1011.9
20260507053144 50 353 1.0 3.0 0.00 1.40 0.00 90 1011.9
20260507053044 50 353 1.0 3.0 0.00 1.40 0.00 90 1011.9
20260507052946 50 351 1.0 3.0 0.00 1.40 0.00 90 1011.9
20260507052845 50 348 1.0 3.0 0.00 1.40 0.00 90 1011.9
20260507052745 50 346 1.0 3.0 0.00 1.40 0.00 90 1011.9
20260507052644 50 345 1.0 3.0 0.00 1.40 0.00 90 1011.9
20260507052544 50 343 1.0 3.0 0.00 1.40 0.00 90 1012.0
20260507052444 50 341 1.0 3.0 0.00 1.40 0.00 90 1012.0
20260507052345 50 341 1.0 3.0 0.00 1.40 0.00 90 1012.0
20260507052246 50 329 1.0 3.0 0.00 1.40 0.00 90 1012.0
20260507052145 50 321 0.0 2.0 0.00 1.40 0.00 90 1012.0
20260507052045 50 322 1.0 2.0 0.00 1.40 0.00 90 1012.1
20260507051945 50 323 1.0 2.0 0.00 1.44 0.00 90 1012.0
20260507051846 50 324 1.0 2.0 0.00 1.44 0.00 90 1012.0
20260507051745 50 325 1.0 2.0 0.00 1.44 0.00 90 1012.0
20260507051645 50 325 1.0 2.0 0.00 1.44 0.00 91 1012.0
20260507051545 50 327 1.0 2.0 0.00 1.44 0.00 91 1011.9
20260507051444 50 330 1.0 2.0 0.00 1.44 0.00 90 1011.9
20260507051344 50 333 1.0 2.0 0.00 1.44 0.00 91 1012.0
20260507051246 50 339 1.0 2.0 0.00 1.44 0.00 90 1011.8
20260507051145 50 350 0.0 2.0 0.00 1.44 0.00 91 1011.8
20260507051045 50 2 0.0 2.0 0.00 1.44 0.00 90 1011.8
20260507050945 50 15 0.0 1.0 0.00 1.48 0.00 91 1011.8
20260507050845 50 29 0.0 2.0 0.00 1.48 0.00 91 1011.8
20260507050744 50 30 0.0 2.0 0.00 1.48 0.00 91 1011.8
20260507050646 50 29 0.0 2.0 0.00 1.48 0.00 91 1011.9
20260507050545 50 28 0.0 2.0 0.00 1.48 0.00 91 1011.8
20260507050445 50 25 0.0 2.0 0.00 1.48 0.00 91 1011.8
20260507050345 50 25 0.0 2.0 0.00 1.48 0.00 91 1011.8
20260507050245 50 26 0.0 2.0 0.00 1.48 0.00 91 1011.8
20260507050144 50 23 0.0 2.0 0.00 1.48 0.00 91 1011.7
20260507050044 50 11 0.0 2.0 0.00 1.48 0.00 91 1011.8
20260507045946 50 8 0.0 2.0 0.00 1.48 0.00 91 1011.8
20260507045845 50 328 0.0 1.0 0.00 1.48 0.00 91 1011.8
20260507045745 50 312 0.0 0.0 0.00 1.48 0.00 91 1011.8
20260507045644 50 329 0.0 1.0 0.00 1.48 0.00 92 1011.7
20260507045544 50 336 0.0 1.0 0.00 1.48 0.00 92 1011.7
20260507045444 50 342 0.0 1.0 0.00 1.48 0.00 92 1011.7
20260507045345 50 343 0.0 1.0 0.00 1.48 0.00 92 1011.8
20260507045244 50 345 0.0 1.0 0.00 1.48 0.00 92 1011.8
20260507045144 50 347 0.0 1.0 0.00 1.48 0.00 92 1011.6
20260507045045 49 352 0.0 1.0 0.00 1.48 0.00 92 1011.7
20260507044946 49 353 0.0 1.0 0.00 1.48 0.00 92 1011.7
20260507044845 49 357 0.0 1.0 0.00 1.48 0.00 92 1011.6
20260507044745 49 357 0.0 1.0 0.00 1.48 0.00 92 1011.7
20260507044646 49 357 0.0 1.0 0.00 1.48 0.00 92 1011.6
20260507044546 49 6 0.0 2.0 0.00 1.48 0.00 92 1011.6
20260507044445 49 10 0.0 2.0 0.00 1.51 0.00 92 1011.7
20260507044345 49 10 0.0 2.0 0.00 1.51 0.00 92 1011.6
20260507044244 49 9 1.0 2.0 0.00 1.51 0.00 92 1011.5
20260507044145 49 9 1.0 2.0 0.00 1.51 0.00 92 1011.5
20260507044045 49 15 1.0 2.0 0.00 1.51 0.00 92 1011.4
20260507043945 49 15 1.0 2.0 0.00 1.51 0.00 92 1011.4
20260507043845 49 16 1.0 2.0 0.00 1.51 0.00 92 1011.5
20260507043745 49 17 1.0 2.0 0.00 1.51 0.00 92 1011.4
20260507043644 49 19 1.0 2.0 0.00 1.51 0.00 92 1011.5
20260507043544 49 17 1.0 2.0 0.00 1.51 0.00 92 1011.4
20260507043446 49 15 1.0 2.0 0.00 1.51 0.00 92 1011.3
20260507043346 49 16 1.0 2.0 0.00 1.51 0.00 92 1011.3
20260507043245 49 18 1.0 2.0 0.00 1.51 0.00 92 1011.2
20260507043144 49 18 0.0 2.0 0.00 1.51 0.00 92 1011.2
20260507043044 49 11 0.0 2.0 0.00 1.51 0.00 92 1011.2
20260507042944 49 11 0.0 2.0 0.00 1.51 0.00 92 1011.1
20260507042845 49 9 0.0 1.0 0.00 1.51 0.00 92 1011.1
20260507042745 49 6 0.0 1.0 0.00 1.51 0.00 92 1011.2
20260507042644 49 1 0.0 1.0 0.00 1.51 0.00 92 1011.2
20260507042544 49 355 0.0 1.0 0.00 1.51 0.00 92 1011.0
20260507042444 49 353 0.0 0.0 0.00 1.51 0.00 92 1011.1
20260507042346 49 353 0.0 0.0 0.00 1.51 0.00 92 1011.1
20260507042245 49 353 0.0 0.0 0.00 1.51 0.00 92 1011.1
20260507042145 49 353 0.0 0.0 0.00 1.51 0.00 92 1011.1
20260507042045 49 352 0.0 0.0 0.00 1.51 0.00 92 1011.1
20260507041945 49 350 0.0 1.0 0.00 1.51 0.00 92 1011.0
20260507041844 49 351 0.0 1.0 0.00 1.51 0.00 92 1011.0
20260507041746 49 7 0.0 1.0 0.00 1.51 0.00 92 1010.9
20260507041645 49 21 0.0 1.0 0.00 1.51 0.00 92 1011.0
20260507041545 49 22 0.0 1.0 0.00 1.51 0.00 92 1011.0
20260507041445 49 21 0.0 1.0 0.00 1.51 0.00 92 1011.0
20260507041344 49 22 0.0 1.0 0.00 1.51 0.00 92 1011.0
20260507041244 49 24 0.0 1.0 0.00 1.51 0.00 92 1011.0
20260507041145 49 25 0.0 1.0 0.00 1.51 0.00 92 1010.9
20260507041045 49 27 0.0 1.0 0.00 1.51 0.00 92 1010.9
20260507040945 49 36 0.0 1.0 0.00 1.51 0.00 92 1010.9
20260507040846 49 41 0.0 1.0 0.00 1.51 0.00 92 1010.9
20260507040746 49 15 0.0 1.0 0.00 1.51 0.00 92 1010.9
20260507040645 49 357 0.0 1.0 0.00 1.51 0.00 92 1010.9
20260507040545 49 350 0.0 1.0 0.00 1.51 0.00 92 1010.9
20260507040445 49 350 0.0 1.0 0.00 1.51 0.00 92 1010.9
20260507040345 49 350 0.0 1.0 0.00 1.51 0.00 92 1010.8
20260507040244 49 346 0.0 1.0 0.00 1.51 0.00 92 1010.9
20260507040146 49 335 0.0 2.0 0.00 1.51 0.00 92 1010.9
20260507040046 49 328 0.0 2.0 0.00 1.51 0.00 92 1010.9
20260507035945 49 324 1.0 2.0 0.00 1.51 0.00 92 1010.8
20260507035845 49 320 1.0 2.0 0.00 1.51 0.00 92 1010.9
20260507035745 49 316 1.0 2.0 0.00 1.51 0.00 92 1010.9
20260507035644 49 314 1.0 2.0 0.00 1.51 0.00 92 1011.0
20260507035544 49 314 1.0 2.0 0.00 1.51 0.00 92 1010.9
20260507035444 49 314 1.0 2.0 0.00 1.51 0.00 92 1010.9
20260507035346 49 313 1.0 2.0 0.00 1.51 0.00 92 1011.0
20260507035245 49 310 1.0 2.0 0.00 1.51 0.00 92 1010.9
20260507035145 49 309 1.0 2.0 0.00 1.51 0.00 92 1010.8
20260507035046 49 310 0.0 2.0 0.00 1.51 0.00 92 1010.9
20260507034946 49 310 0.0 2.0 0.00 1.51 0.00 92 1010.9
20260507034845 49 310 0.0 2.0 0.00 1.51 0.00 92 1010.9
20260507034745 49 309 0.0 2.0 0.00 1.51 0.00 92 1010.8
20260507034646 49 308 0.0 2.0 0.00 1.51 0.00 92 1010.7
20260507034546 49 306 0.0 2.0 0.00 1.51 0.00 92 1010.9
20260507034445 49 304 1.0 2.0 0.00 1.51 0.00 92 1010.9
20260507034345 49 307 1.0 2.0 0.00 1.51 0.00 92 1010.9
20260507034245 49 309 1.0 3.0 0.00 1.51 0.00 92 1010.9
20260507034145 49 308 1.0 3.0 0.00 1.51 0.00 92 1010.9
20260507034045 49 305 1.0 3.0 0.00 1.51 0.00 92 1010.9
20260507033945 49 301 2.0 3.0 0.00 1.51 0.00 92 1010.9
20260507033844 49 298 2.0 3.0 0.00 1.51 0.00 92 1010.9
20260507033744 49 294 2.0 3.0 0.00 1.51 0.00 92 1010.9
20260507033645 49 291 2.0 3.0 0.00 1.51 0.00 92 1010.9
20260507033545 49 289 2.0 3.0 0.00 1.51 0.00 92 1010.9
20260507033445 49 288 2.0 3.0 0.00 1.51 0.00 92 1010.9
20260507033344 49 286 2.0 3.0 0.00 1.51 0.00 92 1010.9
20260507033246 49 281 1.0 3.0 0.00 1.51 0.00 92 1010.9
20260507033145 49 281 1.0 3.0 0.00 1.51 0.00 92 1011.0
20260507033045 49 283 1.0 3.0 0.00 1.51 0.00 92 1010.9
20260507032945 49 286 1.0 3.0 0.00 1.51 0.00 92 1010.8
20260507032846 49 291 1.0 3.0 0.00 1.51 0.00 92 1010.9
20260507032746 49 293 1.0 3.0 0.00 1.51 0.00 92 1010.8
20260507032645 49 300 1.0 3.0 0.00 1.51 0.00 92 1010.8
20260507032545 49 311 0.0 2.0 0.00 1.51 0.00 92 1010.8
20260507032445 49 320 0.0 2.0 0.00 1.51 0.00 92 1010.8
20260507032344 49 326 0.0 1.0 0.00 1.51 0.00 92 1010.8
20260507032246 49 326 0.0 1.0 0.00 1.51 0.00 92 1010.9
20260507032145 49 326 0.0 1.0 0.00 1.51 0.00 92 1010.9
20260507032045 49 326 0.0 2.0 0.00 1.51 0.00 92 1010.8
20260507031945 49 326 0.0 2.0 0.00 1.51 0.00 92 1010.8
20260507031844 49 326 0.0 2.0 0.00 1.51 0.00 92 1010.8
20260507031746 49 326 0.0 2.0 0.00 1.51 0.00 92 1010.8
20260507031645 50 328 0.0 2.0 0.00 1.51 0.00 92 1010.7
20260507031545 50 330 1.0 2.0 0.00 1.51 0.00 92 1010.8
20260507031445 50 332 1.0 2.0 0.00 1.51 0.00 92 1010.8
20260507031344 50 332 1.0 2.0 0.00 1.51 0.00 92 1010.8
20260507031244 50 334 1.0 2.0 0.00 1.51 0.00 92 1010.8
20260507031145 50 337 1.0 2.0 0.00 1.51 0.00 92 1010.8
20260507031046 50 343 1.0 2.0 0.00 1.51 0.00 92 1010.8
20260507030945 50 348 1.0 2.0 0.00 1.51 0.00 92 1010.8
20260507030845 50 352 1.0 2.0 0.00 1.51 0.00 92 1010.7
20260507030745 50 353 1.0 2.0 0.00 1.51 0.00 92 1010.7
20260507030645 50 355 1.0 2.0 0.00 1.51 0.00 92 1010.7
20260507030544 50 355 0.0 2.0 0.00 1.51 0.00 92 1010.8
20260507030444 50 354 0.0 2.0 0.00 1.51 0.00 92 1010.8
20260507030344 50 353 1.0 2.0 0.00 1.51 0.00 92 1010.7
20260507030246 50 352 1.0 2.0 0.00 1.51 0.00 92 1010.7
20260507030145 50 348 1.0 2.0 0.00 1.51 0.00 92 1010.8
20260507030045 50 345 1.0 2.0 0.00 1.51 0.00 92 1010.7
20260507025945 50 341 1.0 2.0 0.00 1.51 0.00 92 1010.8
20260507025844 50 339 1.0 2.0 0.00 1.51 0.00 92 1010.8
20260507025744 50 338 1.0 2.0 0.00 1.51 0.00 92 1010.8
20260507025646 50 337 1.0 2.0 0.00 1.51 0.00 92 1010.8
20260507025546 50 334 1.0 2.0 0.00 1.51 0.00 92 1010.8
20260507025446 50 337 2.0 3.0 0.00 1.51 0.00 92 1010.8
20260507025345 50 339 2.0 4.0 0.00 1.51 0.00 92 1010.8
20260507025244 50 342 2.0 6.0 0.00 1.51 0.00 92 1010.8
20260507025144 50 342 2.0 6.0 0.00 1.51 0.00 92 1010.7
20260507025046 50 342 2.0 6.0 0.00 1.51 0.00 92 1010.7
20260507024946 50 343 3.0 6.0 0.00 1.51 0.00 92 1010.8
20260507024846 50 343 3.0 6.0 0.00 1.51 0.00 92 1010.8
20260507024745 50 342 3.0 6.0 0.00 1.51 0.00 92 1010.7
20260507024644 50 342 3.0 6.0 0.00 1.51 0.00 92 1010.7
20260507024544 50 342 3.0 6.0 0.00 1.51 0.00 92 1010.7
20260507024446 50 340 3.0 6.0 0.00 1.51 0.00 92 1010.7
20260507024345 50 338 3.0 6.0 0.00 1.51 0.00 92 1010.7
20260507024245 50 335 3.0 6.0 0.00 1.51 0.00 92 1010.7
20260507024145 50 333 3.0 6.0 0.00 1.51 0.00 92 1010.7
20260507024045 50 331 3.0 6.0 0.00 1.51 0.00 92 1010.7
20260507023945 50 329 2.0 6.0 0.00 1.51 0.00 92 1010.8
20260507023844 50 326 2.0 4.0 0.00 1.51 0.00 92 1010.8
20260507023744 50 323 2.0 4.0 0.00 1.51 0.00 92 1010.8
20260507023644 50 321 2.0 3.0 0.00 1.51 0.00 92 1010.7
20260507023546 50 317 1.0 3.0 0.00 1.51 0.00 92 1010.8
20260507023446 50 314 1.0 2.0 0.00 1.51 0.00 92 1010.8
20260507023345 50 314 1.0 2.0 0.00 1.51 0.00 92 1010.8
20260507023245 50 313 1.0 2.0 0.00 1.51 0.00 92 1010.8
20260507023144 50 315 1.0 2.0 0.00 1.51 0.00 92 1010.8
20260507023044 50 316 1.0 2.0 0.00 1.51 0.00 92 1010.7
20260507022944 50 318 1.0 2.0 0.00 1.51 0.00 92 1010.7
20260507022845 50 318 1.0 3.0 0.00 1.51 0.00 92 1010.7
20260507022745 50 320 1.0 4.0 0.00 1.51 0.00 92 1010.7
20260507022644 50 321 1.0 4.0 0.00 1.51 0.00 92 1010.7
20260507022544 50 321 1.0 4.0 0.00 1.51 0.00 92 1010.7
20260507022446 50 322 2.0 4.0 0.00 1.51 0.00 92 1010.6
20260507022345 50 322 2.0 4.0 0.00 1.51 0.00 92 1010.7
20260507022244 50 322 2.0 4.0 0.00 1.51 0.00 92 1010.8
20260507022144 50 323 3.0 4.0 0.00 1.51 0.00 92 1010.7
20260507022046 50 324 3.0 4.0 0.00 1.51 0.00 92 1010.7
20260507021946 50 325 3.0 4.0 0.00 1.51 0.00 92 1010.7
20260507021845 50 327 3.0 4.0 0.00 1.51 0.00 92 1010.6
20260507021745 50 329 3.0 4.0 0.00 1.51 0.00 92 1010.7
20260507021644 51 332 3.0 4.0 0.00 1.51 0.00 92 1010.7
20260507021544 50 333 2.0 4.0 0.00 1.51 0.00 92 1010.6
20260507021444 50 335 2.0 4.0 0.00 1.51 0.00 92 1010.6
20260507021344 51 337 2.0 3.0 0.00 1.51 0.00 92 1010.7
20260507021245 51 339 2.0 3.0 0.00 1.51 0.00 92 1010.6
20260507021145 51 341 2.0 3.0 0.00 1.51 0.00 92 1010.7
20260507021045 51 343 2.0 3.0 0.00 1.51 0.00 92 1010.7
20260507020945 51 342 2.0 3.0 0.00 1.51 0.00 92 1010.7
20260507020844 51 345 2.0 4.0 0.00 1.51 0.00 92 1010.7
20260507020744 51 345 2.0 4.0 0.00 1.51 0.00 92 1010.6
20260507020646 51 345 2.0 4.0 0.00 1.51 0.00 92 1010.7
20260507020545 51 346 3.0 4.0 0.00 1.51 0.00 92 1010.7
20260507020445 51 347 3.0 4.0 0.00 1.51 0.00 92 1010.7
20260507020345 51 347 3.0 4.0 0.00 1.51 0.00 92 1010.7
20260507020244 51 348 3.0 4.0 0.00 1.51 0.00 92 1010.6
20260507020144 51 348 3.0 4.0 0.00 1.51 0.00 92 1010.6
20260507020044 51 347 3.0 4.0 0.00 1.51 0.00 92 1010.6
20260507015945 51 346 3.0 4.0 0.00 1.51 0.00 92 1010.7
20260507015844 51 345 3.0 4.0 0.00 1.51 0.00 92 1010.7
20260507015744 51 343 3.0 4.0 0.00 1.51 0.00 92 1010.7
20260507015644 51 340 3.0 4.0 0.00 1.51 0.00 92 1010.6
20260507015546 51 337 3.0 4.0 0.00 1.51 0.00 92 1010.8
20260507015444 51 333 2.0 4.0 0.00 1.51 0.00 92 1010.7
20260507015345 51 330 2.0 4.0 0.00 1.51 0.00 92 1010.7
20260507015245 51 327 2.0 4.0 0.00 1.51 0.00 92 1010.7
20260507015144 51 326 2.0 4.0 0.00 1.51 0.00 92 1010.6
20260507015045 51 326 2.0 4.0 0.00 1.51 0.00 92 1010.6
20260507014945 51 327 2.0 4.0 0.00 1.51 0.00 92 1010.7
20260507014844 51 323 1.0 4.0 0.00 1.51 0.00 92 1010.7
20260507014744 51 324 1.0 3.0 0.00 1.51 0.00 92 1010.6
20260507014645 51 323 1.0 3.0 0.00 1.51 0.00 92 1010.6
20260507014545 51 326 1.0 3.0 0.00 1.51 0.00 92 1010.6
20260507014445 51 334 1.0 3.0 0.00 1.51 0.00 92 1010.5
20260507014345 51 343 0.0 2.0 0.00 1.51 0.00 92 1010.7
20260507014245 51 352 0.0 3.0 0.00 1.51 0.00 92 1010.6
20260507014144 51 349 1.0 4.0 0.00 1.51 0.00 92 1010.6
20260507014044 51 348 1.0 6.0 0.00 1.51 0.00 92 1010.6
20260507013944 51 347 1.0 6.0 0.00 1.51 0.00 92 1010.5
20260507013845 51 346 2.0 6.0 0.00 1.51 0.00 92 1010.5
20260507013744 51 347 2.0 6.0 0.00 1.51 0.00 92 1010.5
20260507013644 51 346 2.0 6.0 0.00 1.51 0.00 92 1010.6
20260507013544 51 345 3.0 6.0 0.00 1.51 0.00 92 1010.5
20260507013444 51 345 3.0 6.0 0.00 1.51 0.00 92 1010.5
20260507013345 51 343 3.0 6.0 0.00 1.51 0.00 92 1010.5
20260507013245 51 341 3.0 6.0 0.00 1.51 0.00 92 1010.5
20260507013144 51 339 3.0 6.0 0.00 1.51 0.00 92 1010.5
20260507013044 51 337 3.0 6.0 0.00 1.51 0.00 92 1010.4
20260507012944 51 334 3.0 6.0 0.00 1.51 0.00 92 1010.4
20260507012845 51 332 3.0 4.0 0.00 1.51 0.00 92 1010.5
20260507012745 51 329 2.0 4.0 0.00 1.51 0.00 92 1010.5
20260507012645 51 326 2.0 4.0 0.00 1.51 0.00 92 1010.4
20260507012545 51 324 2.0 4.0 0.00 1.51 0.00 92 1010.4
20260507012445 51 320 2.0 4.0 0.00 1.51 0.00 92 1010.4
20260507012344 51 320 2.0 4.0 0.00 1.51 0.00 92 1010.4
20260507012245 51 319 2.0 4.0 0.00 1.51 0.00 92 1010.4
20260507012145 51 317 1.0 4.0 0.00 1.51 0.00 91 1010.4
20260507012045 51 317 1.0 3.0 0.00 1.51 0.00 91 1010.4
20260507011945 51 319 1.0 3.0 0.00 1.51 0.00 92 1010.4
20260507011844 51 322 1.0 3.0 0.00 1.51 0.00 92 1010.3
20260507011744 51 326 1.0 3.0 0.00 1.51 0.00 92 1010.4
20260507011646 51 327 2.0 3.0 0.00 1.51 0.00 92 1010.4
20260507011545 51 331 2.0 3.0 0.00 1.51 0.00 92 1010.3
20260507011445 51 333 2.0 3.0 0.00 1.51 0.00 92 1010.4
20260507011345 51 334 2.0 3.0 0.00 1.51 0.00 92 1010.4
20260507011244 51 334 2.0 4.0 0.00 1.51 0.00 92 1010.3
20260507011144 51 335 2.0 4.0 0.00 1.51 0.00 91 1010.4
20260507011044 51 334 3.0 4.0 0.00 1.51 0.00 91 1010.4
20260507010946 51 333 3.0 4.0 0.00 1.51 0.00 92 1010.3
20260507010845 51 332 3.0 4.0 0.00 1.51 0.00 91 1010.3
20260507010745 51 330 3.0 4.0 0.00 1.51 0.00 91 1010.5
20260507010645 51 329 3.0 4.0 0.00 1.51 0.00 91 1010.3
20260507010544 51 326 3.0 4.0 0.00 1.51 0.00 92 1010.3
20260507010444 51 324 3.0 4.0 0.00 1.51 0.00 92 1010.4
20260507010345 51 322 3.0 4.0 0.00 1.51 0.00 92 1010.4
20260507010246 51 320 3.0 4.0 0.00 1.51 0.00 92 1010.3
20260507010145 51 317 2.0 4.0 0.00 1.51 0.00 91 1010.3
20260507010045 51 315 2.0 4.0 0.00 1.51 0.00 92 1010.3
20260507005945 52 313 2.0 4.0 0.00 1.51 0.00 92 1010.4
20260507005844 52 311 2.0 4.0 0.00 1.51 0.00 92 1010.3
20260507005744 52 309 2.0 4.0 0.00 1.51 0.00 91 1010.3
20260507005644 52 308 2.0 4.0 0.00 1.51 0.00 91 1010.4
20260507005544 52 308 2.0 4.0 0.00 1.51 0.00 91 1010.3
20260507005444 52 307 2.0 4.0 0.00 1.51 0.00 91 1010.3
20260507005345 52 306 2.0 4.0 0.00 1.51 0.00 91 1010.2
20260507005245 52 305 2.0 3.0 0.00 1.51 0.00 92 1010.2
20260507005144 52 307 2.0 3.0 0.00 1.51 0.00 91 1010.1
20260507005045 52 307 2.0 3.0 0.00 1.51 0.00 91 1010.2
20260507004945 52 307 2.0 3.0 0.00 1.51 0.00 91 1010.2
20260507004845 52 307 2.0 3.0 0.00 1.51 0.00 91 1010.2
20260507004744 52 307 1.0 3.0 0.00 1.51 0.00 91 1010.1
20260507004646 52 308 1.0 3.0 0.00 1.51 0.00 91 1010.1
20260507004546 52 307 1.0 3.0 0.00 1.51 0.00 91 1010.0
20260507004445 52 308 1.0 3.0 0.00 1.51 0.00 91 1010.0
20260507004344 52 310 1.0 3.0 0.00 1.51 0.00 91 1010.1
20260507004244 52 313 1.0 3.0 0.00 1.51 0.00 91 1010.1
20260507004145 52 311 1.0 3.0 0.00 1.51 0.00 91 1010.1
20260507004045 52 312 0.0 1.0 0.00 1.51 0.00 92 1010.1
20260507003945 52 314 0.0 1.0 0.00 1.51 0.00 91 1010.1
20260507003844 52 316 0.0 1.0 0.00 1.51 0.00 91 1010.0
20260507003744 52 318 0.0 1.0 0.00 1.51 0.00 92 1010.0
20260507003644 52 322 1.0 2.0 0.00 1.51 0.00 92 1010.0
20260507003546 52 327 1.0 2.0 0.00 1.51 0.00 92 1010.1
20260507003446 52 334 1.0 3.0 0.00 1.51 0.00 91 1010.0
20260507003346 52 336 1.0 3.0 0.00 1.51 0.00 91 1010.2
20260507003244 52 339 1.0 3.0 0.00 1.51 0.00 91 1010.1
20260507003146 52 339 1.0 3.0 0.00 1.51 0.00 91 1010.1
20260507003045 52 338 1.0 3.0 0.00 1.51 0.00 91 1010.1
20260507002944 52 340 1.0 3.0 0.00 1.51 0.00 91 1010.1
20260507002844 52 341 2.0 3.0 0.00 1.51 0.00 91 1010.1
20260507002746 52 342 2.0 3.0 0.00 1.51 0.00 91 1010.0
20260507002645 52 344 2.0 3.0 0.00 1.51 0.00 91 1010.2
20260507002545 52 344 1.0 3.0 0.00 1.51 0.00 91 1010.1
20260507002445 52 340 1.0 3.0 0.00 1.51 0.00 91 1010.1
20260507002344 52 338 1.0 3.0 0.00 1.51 0.00 91 1010.1
20260507002244 52 335 1.0 2.0 0.00 1.51 0.00 91 1010.2
20260507002146 52 335 1.0 2.0 0.00 1.51 0.00 91 1010.1
20260507002045 52 334 1.0 2.0 0.00 1.51 0.00 91 1010.2
20260507001945 52 331 2.0 3.0 0.00 1.51 0.00 91 1010.2
20260507001845 52 329 2.0 3.0 0.00 1.51 0.00 91 1010.2
20260507001744 52 326 2.0 3.0 0.00 1.51 0.00 91 1010.2
20260507001644 52 324 2.0 3.0 0.00 1.51 0.00 91 1010.2
20260507001544 52 324 2.0 3.0 0.00 1.51 0.00 91 1010.2
20260507001445 52 325 2.0 3.0 0.00 1.51 0.00 91 1010.3
20260507001344 52 326 2.0 3.0 0.00 1.51 0.00 91 1010.1
20260507001244 53 327 1.0 3.0 0.00 1.51 0.00 91 1010.1
20260507001146 53 327 1.0 3.0 0.00 1.51 0.00 91 1010.1
20260507001045 53 327 1.0 3.0 0.00 1.51 0.00 91 1010.1
20260507000945 53 329 1.0 3.0 0.00 1.51 0.00 91 1010.1
20260507000844 53 331 1.0 2.0 0.00 1.51 0.00 91 1010.1
20260507000744 53 334 1.0 2.0 0.00 1.51 0.00 91 1010.2
20260507000645 53 336 0.0 2.0 0.00 1.51 0.00 91 1010.2
20260507000545 53 338 0.0 1.0 0.00 1.51 0.00 91 1010.1
20260507000445 53 337 0.0 1.0 0.00 1.51 0.00 91 1010.2
20260507000345 53 337 0.0 1.0 0.00 1.51 0.00 91 1010.1
20260507000245 53 337 0.0 1.0 0.00 1.51 0.00 91 1010.1
20260507000144 53 337 0.0 1.0 0.00 1.51 0.00 91 1010.1
20260507000044 53 337 0.0 1.0 0.00 1.51 0.00 91 1010.1
20260506235945 53 337 0.0 1.0 0.00 1.51 0.00 91 1010.1
20260506235845 53 337 0.0 1.0 0.00 1.51 0.00 91 1010.2
20260506235745 53 338 0.0 1.0 0.00 1.51 0.00 91 1010.1
20260506235645 53 338 0.0 1.0 0.00 1.51 0.00 91 1010.1
20260506235545 53 338 0.0 1.0 0.00 1.51 0.00 91 1010.1
20260506235445 53 338 0.0 1.0 0.00 1.51 0.00 91 1010.1
20260506235344 53 338 0.0 1.0 0.00 1.51 0.00 91 1010.1
20260506235245 53 338 0.0 1.0 0.00 1.51 0.00 91 1010.2
20260506235145 53 338 0.0 1.0 0.00 1.51 0.00 91 1010.1
20260506235045 53 338 0.0 1.0 0.00 1.51 0.00 91 1010.0
20260506234945 53 338 0.0 1.0 0.00 1.51 0.00 91 1010.1
20260506234844 53 338 0.0 1.0 0.00 1.51 0.00 91 1010.1
20260506234744 53 338 0.0 1.0 0.00 1.51 0.00 91 1010.1
20260506234646 53 337 0.0 0.0 0.00 1.51 0.00 91 1010.1
20260506234545 53 338 0.0 1.0 0.00 1.51 0.00 91 1010.2
20260506234444 53 337 0.0 2.0 0.00 1.51 0.00 91 1010.1
20260506234344 53 338 0.0 2.0 0.00 1.51 0.00 91 1010.2
20260506234246 53 337 0.0 2.0 0.00 1.51 0.00 91 1010.2
20260506234145 53 337 1.0 3.0 0.00 1.51 0.00 91 1010.1
20260506234045 53 336 1.0 3.0 0.00 1.51 0.00 91 1010.1
20260506233945 53 336 1.0 3.0 0.00 1.51 0.00 91 1010.1
20260506233844 53 337 1.0 3.0 0.00 1.51 0.00 91 1010.0
20260506233744 53 335 2.0 3.0 0.00 1.51 0.00 91 1010.1
20260506233644 53 335 2.0 3.0 0.00 1.51 0.00 91 1010.1
20260506233546 53 336 2.0 3.0 0.00 1.51 0.00 91 1010.0
20260506233446 53 338 2.0 3.0 0.00 1.51 0.00 91 1010.1
20260506233346 53 339 2.0 3.0 0.00 1.51 0.00 91 1010.1
20260506233244 53 340 2.0 3.0 0.00 1.51 0.00 91 1010.0
20260506233145 53 341 2.0 3.0 0.00 1.51 0.00 91 1010.1
20260506233045 53 342 2.0 3.0 0.00 1.51 0.00 91 1010.0
20260506232945 53 341 2.0 4.0 0.00 1.51 0.00 91 1010.0
20260506232844 53 341 2.0 6.0 0.00 1.51 0.00 91 1010.1
20260506232745 53 343 2.0 6.0 0.00 1.51 0.00 91 1010.1
20260506232645 53 341 3.0 6.0 0.00 1.51 0.00 91 1010.1
20260506232545 53 341 3.0 6.0 0.00 1.51 0.00 91 1010.0
20260506232445 53 339 3.0 6.0 0.00 1.51 0.00 91 1010.1
20260506232344 53 338 3.0 6.0 0.00 1.51 0.00 91 1009.9
20260506232246 53 337 3.0 6.0 0.00 1.51 0.00 91 1010.1
20260506232145 53 336 3.0 6.0 0.00 1.51 0.00 91 1010.0
20260506232045 53 336 3.0 6.0 0.00 1.51 0.00 90 1010.0
20260506231945 53 338 2.0 6.0 0.00 1.51 0.00 90 1010.0
20260506231845 53 337 2.0 6.0 0.00 1.51 0.00 90 1010.1
20260506231744 53 336 1.0 6.0 0.00 1.51 0.00 90 1009.9
20260506231645 53 338 1.0 3.0 0.00 1.51 0.00 91 1009.9
20260506231545 53 338 1.0 3.0 0.00 1.51 0.00 91 1010.0
20260506231444 53 339 0.0 2.0 0.00 1.51 0.00 91 1010.0
20260506231344 53 340 0.0 2.0 0.00 1.51 0.00 91 1010.0
20260506231244 53 343 0.0 2.0 0.00 1.51 0.00 91 1010.0
20260506231145 53 352 0.0 2.0 0.00 1.51 0.00 91 1010.0
20260506231045 53 4 0.0 1.0 0.00 1.51 0.00 91 1010.0
20260506230945 53 8 0.0 2.0 0.00 1.51 0.00 91 1010.0
20260506230844 53 8 0.0 2.0 0.00 1.51 0.00 91 1009.9
20260506230744 53 3 0.0 2.0 0.00 1.51 0.00 91 1009.9
20260506230644 53 4 1.0 3.0 0.00 1.51 0.00 91 1009.9
20260506230544 53 5 1.0 3.0 0.00 1.51 0.00 91 1010.0
20260506230444 53 5 1.0 3.0 0.00 1.51 0.00 91 1010.0
20260506230344 53 3 1.0 3.0 0.00 1.51 0.00 91 1009.9
20260506230245 53 2 2.0 3.0 0.00 1.51 0.00 91 1009.9
20260506230145 53 357 2.0 3.0 0.00 1.51 0.00 91 1009.9
20260506230045 53 351 2.0 4.0 0.00 1.51 0.00 91 1009.8
20260506225944 53 347 2.0 4.0 0.00 1.51 0.00 91 1009.8
20260506225845 53 343 3.0 4.0 0.00 1.51 0.00 91 1009.9
20260506225745 53 342 3.0 4.0 0.00 1.51 0.00 91 1009.9
20260506225644 53 339 3.0 4.0 0.00 1.51 0.00 91 1009.9
20260506225544 53 336 3.0 4.0 0.00 1.51 0.00 91 1010.0
20260506225444 53 332 3.0 4.0 0.00 1.51 0.00 91 1010.0
20260506225346 53 329 3.0 4.0 0.00 1.51 0.00 91 1009.9
20260506225244 53 326 2.0 4.0 0.00 1.51 0.00 91 1009.9
20260506225144 53 326 2.0 4.0 0.00 1.51 0.00 91 1010.0
20260506225046 53 326 2.0 4.0 0.00 1.51 0.00 91 1010.0
20260506224945 53 326 1.0 3.0 0.00 1.51 0.00 91 1010.1
20260506224844 53 325 1.0 3.0 0.00 1.51 0.00 91 1010.1
20260506224744 53 324 1.0 3.0 0.00 1.51 0.00 91 1010.1
20260506224646 53 318 0.0 3.0 0.00 1.51 0.00 91 1010.1
20260506224546 53 317 0.0 3.0 0.00 1.51 0.00 91 1010.2
20260506224446 53 324 1.0 3.0 0.00 1.51 0.00 91 1010.1
20260506224344 53 332 1.0 3.0 0.00 1.51 0.00 91 1010.2
20260506224244 53 337 1.0 3.0 0.00 1.51 0.00 91 1010.1
20260506224145 53 337 1.0 3.0 0.00 1.51 0.00 91 1010.1
20260506224045 53 340 2.0 4.0 0.00 1.51 0.00 91 1010.1
20260506223945 53 342 2.0 6.0 0.00 1.51 0.00 90 1010.0
20260506223844 53 343 2.0 6.0 0.00 1.51 0.00 91 1010.0
20260506223744 53 346 3.0 6.0 0.00 1.51 0.00 91 1010.0
20260506223644 53 348 3.0 6.0 0.00 1.51 0.00 91 1010.0
20260506223545 53 350 3.0 6.0 0.00 1.51 0.00 91 1009.9
20260506223445 53 351 3.0 6.0 0.00 1.51 0.00 91 1009.9
20260506223345 53 352 3.0 6.0 0.00 1.51 0.00 91 1010.0
20260506223244 53 352 3.0 6.0 0.00 1.51 0.00 91 1010.0
20260506223146 53 352 3.0 6.0 0.00 1.51 0.00 91 1010.0
20260506223045 53 351 3.0 6.0 0.00 1.51 0.00 91 1010.0
20260506222945 53 350 3.0 6.0 0.00 1.51 0.00 91 1010.0
20260506222845 53 351 3.0 6.0 0.00 1.51 0.00 91 1009.9
20260506222745 53 349 2.0 4.0 0.00 1.51 0.00 91 1009.9
20260506222644 53 348 2.0 4.0 0.00 1.51 0.00 91 1010.0
20260506222544 53 349 2.0 4.0 0.00 1.51 0.00 91 1009.9
20260506222444 53 346 2.0 4.0 0.00 1.51 0.00 91 1010.0
20260506222345 53 346 2.0 4.0 0.00 1.51 0.00 91 1009.9
20260506222245 53 346 2.0 4.0 0.00 1.51 0.00 91 1009.8
20260506222145 53 344 2.0 4.0 0.00 1.51 0.00 91 1009.8
20260506222045 53 342 2.0 4.0 0.00 1.51 0.00 91 1009.8
20260506221945 53 340 2.0 4.0 0.00 1.51 0.00 91 1009.7
20260506221845 53 339 2.0 4.0 0.00 1.51 0.00 91 1009.7
20260506221744 53 338 2.0 4.0 0.00 1.51 0.00 91 1009.7
20260506221644 53 339 2.0 4.0 0.00 1.51 0.00 91 1009.8
20260506221544 53 338 2.0 4.0 0.00 1.51 0.00 91 1009.7
20260506221445 53 340 2.0 3.0 0.00 1.51 0.00 91 1009.8
20260506221345 53 339 2.0 3.0 0.00 1.51 0.00 91 1009.8
20260506221244 53 339 2.0 3.0 0.00 1.51 0.00 91 1009.8
20260506221144 53 340 2.0 3.0 0.00 1.51 0.00 91 1009.8
20260506221046 53 341 2.0 3.0 0.00 1.51 0.00 91 1009.8
20260506220945 53 342 2.0 3.0 0.00 1.51 0.00 91 1009.8
20260506220844 53 342 2.0 3.0 0.00 1.51 0.00 91 1009.8
20260506220744 53 339 2.0 3.0 0.00 1.51 0.00 91 1009.7
20260506220645 53 336 2.0 3.0 0.00 1.51 0.00 91 1009.7
20260506220544 53 334 2.0 3.0 0.00 1.51 0.00 90 1009.7
20260506220444 53 329 1.0 3.0 0.00 1.51 0.00 90 1009.6
20260506220344 53 324 1.0 3.0 0.00 1.51 0.00 90 1009.7
20260506220245 53 319 1.0 3.0 0.00 1.51 0.00 91 1009.6
20260506220145 53 308 0.0 2.0 0.00 1.51 0.00 91 1009.6
20260506220045 53 298 0.0 2.0 0.00 1.51 0.00 90 1009.6
20260506215944 53 287 0.0 1.0 0.00 1.51 1.51 90 1009.6
20260506215844 53 276 0.0 2.0 0.00 1.51 1.51 90 1009.5
20260506215744 53 272 0.0 2.0 0.00 1.51 1.51 91 1009.6
20260506215645 53 276 0.0 2.0 0.00 1.51 1.51 91 1009.6
20260506215545 53 283 0.0 2.0 0.00 1.51 1.51 91 1009.7
20260506215445 53 290 0.0 2.0 0.00 1.51 1.51 91 1009.7
20260506215344 53 298 1.0 2.0 0.00 1.51 1.51 91 1009.7
20260506215244 53 301 1.0 2.0 0.00 1.51 1.51 91 1009.7
20260506215144 53 305 1.0 2.0 0.00 1.51 1.51 91 1009.6
20260506215045 53 311 1.0 2.0 0.00 1.51 1.51 91 1009.7
20260506214945 53 315 1.0 2.0 0.00 1.51 1.51 91 1009.7
20260506214845 53 321 1.0 2.0 0.00 1.51 1.51 91 1009.7
20260506214744 53 326 1.0 2.0 0.00 1.51 1.51 91 1009.6
20260506214645 53 326 1.0 2.0 0.00 1.51 1.51 91 1009.6
20260506214545 53 327 1.0 2.0 0.00 1.51 1.51 91 1009.6
20260506214445 53 327 1.0 2.0 0.00 1.51 1.51 91 1009.6
20260506214345 53 330 1.0 2.0 0.00 1.51 1.51 91 1009.5
20260506214245 53 335 1.0 2.0 0.00 1.51 1.51 91 1009.6
20260506214144 53 336 1.0 2.0 0.00 1.51 1.51 91 1009.5
20260506214044 53 337 1.0 2.0 0.00 1.51 1.51 91 1009.6
20260506213945 53 338 1.0 2.0 0.00 1.51 1.51 91 1009.5
20260506213845 53 340 1.0 2.0 0.00 1.51 1.51 91 1009.5
20260506213745 53 345 0.0 2.0 0.00 1.51 1.51 91 1009.5
20260506213645 53 348 1.0 2.0 0.00 1.51 1.51 91 1009.5
20260506213545 53 351 1.0 2.0 0.00 1.51 1.51 91 1009.5
20260506213445 53 353 1.0 3.0 0.00 1.51 1.51 90 1009.5
20260506213346 53 347 1.0 4.0 0.00 1.51 1.51 91 1009.6
20260506213244 53 346 1.0 4.0 0.00 1.51 1.51 91 1009.6
20260506213145 53 345 1.0 4.0 0.00 1.51 1.51 91 1009.6
20260506213045 53 345 2.0 4.0 0.00 1.51 1.51 91 1009.6
20260506212944 53 344 2.0 4.0 0.00 1.51 1.51 91 1009.5
20260506212844 53 342 2.0 4.0 0.00 1.51 1.51 91 1009.6
20260506212744 53 339 2.0 4.0 0.00 1.51 1.51 91 1009.6
20260506212644 53 337 3.0 4.0 0.00 1.51 1.51 91 1009.6
20260506212544 53 336 3.0 4.0 0.00 1.51 1.51 90 1009.5
20260506212444 53 336 2.0 4.0 0.00 1.51 1.51 90 1009.5
20260506212346 53 337 2.0 4.0 0.00 1.51 1.51 90 1009.6
20260506212244 53 336 2.0 4.0 0.00 1.51 1.51 90 1009.6
20260506212144 53 335 2.0 4.0 0.00 1.51 1.51 90 1009.6
20260506212044 53 335 1.0 4.0 0.00 1.51 1.51 90 1009.7
20260506211946 53 333 1.0 4.0 0.00 1.51 1.51 90 1009.5
20260506211845 53 332 1.0 4.0 0.00 1.51 1.51 90 1009.5
20260506211744 53 332 1.0 3.0 0.00 1.51 1.51 90 1009.5
20260506211646 54 331 1.0 3.0 0.00 1.51 1.51 90 1009.5
20260506211546 54 327 1.0 3.0 0.00 1.51 1.51 90 1009.5
20260506211445 53 324 1.0 3.0 0.00 1.51 1.51 91 1009.5
20260506211345 53 322 1.0 3.0 0.00 1.51 1.51 90 1009.6
20260506211245 53 321 1.0 3.0 0.00 1.51 1.51 90 1009.6
20260506211145 53 320 1.0 3.0 0.00 1.51 1.51 90 1009.5
20260506211045 53 318 1.0 3.0 0.00 1.51 1.51 90 1009.5
20260506210945 53 320 1.0 3.0 0.00 1.51 1.51 90 1009.5
20260506210845 53 323 1.0 3.0 0.00 1.51 1.51 90 1009.6
20260506210745 53 329 1.0 3.0 0.00 1.51 1.51 90 1009.5
20260506210645 54 339 1.0 4.0 0.00 1.51 1.51 90 1009.5
20260506210545 54 349 1.0 4.0 0.00 1.51 1.51 91 1009.6
20260506210445 54 354 1.0 4.0 0.00 1.51 1.51 91 1009.6
20260506210344 54 356 1.0 6.0 0.00 1.51 1.51 91 1009.6
20260506210244 54 356 2.0 7.0 0.00 1.51 1.51 91 1009.6
20260506210145 54 355 2.0 7.0 0.00 1.51 1.51 90 1009.6
20260506210045 54 353 3.0 7.0 0.00 1.51 1.51 90 1009.6
20260506205945 54 353 3.0 8.0 0.00 1.51 1.51 90 1009.5
20260506205845 54 353 4.0 8.0 0.00 1.51 1.51 90 1009.6
20260506205745 54 353 4.0 8.0 0.00 1.51 1.51 90 1009.7
20260506205644 54 352 5.0 8.0 0.00 1.51 1.51 90 1009.7
20260506205544 54 352 5.0 8.0 0.00 1.51 1.51 90 1009.7
20260506205444 54 352 5.0 9.0 0.00 1.51 1.51 90 1009.7
20260506205346 54 354 5.0 9.0 0.00 1.51 1.51 90 1009.7
20260506205245 54 354 5.0 9.0 0.00 1.51 1.51 91 1009.7
20260506205145 54 354 5.0 9.0 0.00 1.51 1.51 90 1009.7
20260506205044 54 356 5.0 9.0 0.00 1.51 1.51 90 1009.7
20260506204944 54 356 5.0 9.0 0.00 1.51 1.51 90 1009.7
20260506204844 54 356 5.0 9.0 0.00 1.51 1.51 90 1009.6
20260506204745 54 356 4.0 9.0 0.00 1.51 1.51 90 1009.7
20260506204645 54 356 4.0 9.0 0.00 1.51 1.51 90 1009.6
20260506204545 54 357 4.0 9.0 0.00 1.51 1.51 90 1009.6
20260506204444 54 357 3.0 8.0 0.00 1.51 1.51 90 1009.6
20260506204344 54 355 3.0 8.0 0.00 1.51 1.51 90 1009.6
20260506204244 54 353 3.0 8.0 0.00 1.51 1.51 90 1009.7
20260506204145 54 350 2.0 6.0 0.00 1.51 1.51 90 1009.7
20260506204045 54 346 2.0 6.0 0.00 1.51 1.51 90 1009.7
20260506203945 54 342 2.0 6.0 0.00 1.51 1.51 90 1009.7
20260506203845 54 342 1.0 6.0 0.00 1.51 1.51 90 1009.6
20260506203745 54 337 1.0 4.0 0.00 1.51 1.51 90 1009.7
20260506203646 54 330 1.0 3.0 0.00 1.51 1.51 90 1009.6
20260506203545 54 321 1.0 2.0 0.00 1.51 1.51 90 1009.6
20260506203445 54 319 0.0 1.0 0.00 1.51 1.51 90 1009.6
20260506203345 54 322 0.0 1.0 0.00 1.51 1.51 90 1009.4
20260506203244 54 331 0.0 1.0 0.00 1.51 1.51 90 1009.5
20260506203144 54 15 0.0 1.0 0.00 1.51 1.51 90 1009.4
20260506203046 54 94 0.0 1.0 0.00 1.51 1.51 90 1009.5
20260506202945 54 118 0.0 1.0 0.00 1.51 1.51 90 1009.4
20260506202845 54 124 0.0 1.0 0.00 1.51 1.51 90 1009.3
20260506202745 54 130 0.0 1.0 0.00 1.51 1.51 90 1009.4
20260506202644 54 131 0.0 1.0 0.00 1.51 1.51 90 1009.4
20260506202544 54 132 0.0 1.0 0.00 1.51 1.51 90 1009.4
20260506202444 54 133 0.0 1.0 0.00 1.51 1.51 90 1009.4
20260506202344 54 133 0.0 1.0 0.00 1.51 1.51 90 1009.4
20260506202246 54 136 0.0 2.0 0.00 1.51 1.51 90 1009.3
20260506202145 54 141 0.0 2.0 0.00 1.51 1.51 90 1009.3
20260506202045 54 144 0.0 2.0 0.00 1.51 1.51 89 1009.3
20260506201945 54 151 0.0 2.0 0.00 1.51 1.51 89 1009.3
20260506201846 54 152 0.0 2.0 0.00 1.51 1.51 90 1009.2
20260506201745 54 159 0.0 2.0 0.00 1.51 1.51 89 1009.2
20260506201645 54 162 0.0 2.0 0.00 1.51 1.51 90 1009.2
20260506201545 54 168 0.0 2.0 0.00 1.51 1.51 90 1009.1
20260506201444 54 170 0.0 2.0 0.00 1.51 1.51 90 1009.1
20260506201344 54 172 0.0 2.0 0.00 1.51 1.51 89 1009.2
20260506201244 54 211 0.0 1.0 0.01 1.51 1.51 90 1009.2
20260506201145 54 227 0.0 1.0 0.01 1.51 1.51 90 1009.1
20260506201045 54 227 0.0 1.0 0.01 1.51 1.51 89 1009.1
20260506200945 54 273 0.0 0.0 0.01 1.55 1.51 90 1009.1
20260506200845 54 276 0.0 0.0 0.01 1.55 1.51 90 1009.1
20260506200745 54 276 0.0 0.0 0.01 1.55 1.51 90 1009.1
20260506200644 54 276 0.0 0.0 0.01 1.55 1.51 90 1009.1
20260506200545 54 276 0.0 1.0 0.01 1.55 1.51 90 1009.1
20260506200445 54 276 0.0 1.0 0.01 1.55 1.51 90 1009.1
20260506200345 54 279 0.0 1.0 0.02 1.55 1.51 89 1009.0
20260506200244 54 280 0.0 1.0 0.02 1.55 1.51 89 1009.1
20260506200146 54 285 0.0 2.0 0.02 1.55 1.51 89 1009.0
20260506200046 54 286 0.0 2.0 0.02 1.55 1.51 89 1009.0
20260506195944 54 289 0.0 2.0 0.02 1.55 1.51 89 1009.0
20260506195844 54 296 1.0 3.0 0.03 1.55 1.51 90 1009.0
20260506195744 54 300 1.0 3.0 0.03 1.55 1.51 89 1009.0
20260506195645 54 304 1.0 3.0 0.03 1.55 1.51 89 1008.9
20260506195545 54 310 1.0 3.0 0.03 1.55 1.51 89 1008.9
20260506195445 54 313 1.0 3.0 0.03 1.55 1.51 89 1008.9
20260506195345 54 316 1.0 3.0 0.03 1.55 1.51 89 1008.9
20260506195245 54 318 1.0 3.0 0.03 1.55 1.51 89 1009.0
20260506195145 54 321 1.0 3.0 0.03 1.55 1.51 89 1008.9
20260506195044 54 324 1.0 3.0 0.04 1.55 1.51 89 1008.9
20260506194945 54 326 1.0 3.0 0.04 1.55 1.51 90 1008.8
20260506194845 54 327 1.0 2.0 0.04 1.55 1.51 90 1008.9
20260506194745 54 330 1.0 2.0 0.04 1.55 1.51 90 1008.7
20260506194645 54 331 1.0 2.0 0.05 1.55 1.51 90 1008.8
20260506194545 54 335 1.0 2.0 0.05 1.55 1.51 90 1008.8
20260506194445 54 336 1.0 2.0 0.05 1.55 1.51 90 1008.8
20260506194345 54 337 1.0 2.0 0.05 1.55 1.51 90 1008.8
20260506194246 54 339 1.0 2.0 0.05 1.55 1.51 89 1008.8
20260506194145 54 342 1.0 2.0 0.06 1.55 1.51 89 1008.8
20260506194045 54 344 1.0 2.0 0.06 1.55 1.51 89 1008.7
20260506193944 54 348 1.0 2.0 0.06 1.55 1.51 89 1008.8
20260506193844 54 348 1.0 2.0 0.06 1.55 1.51 89 1008.8
20260506193744 54 349 1.0 2.0 0.06 1.55 1.51 89 1008.8
20260506193644 54 350 1.0 2.0 0.07 1.55 1.51 89 1008.7
20260506193545 54 349 0.0 2.0 0.07 1.55 1.51 89 1008.8
20260506193445 54 351 0.0 2.0 0.07 1.55 1.51 89 1008.7
20260506193344 54 354 0.0 2.0 0.07 1.55 1.51 89 1008.7
20260506193246 54 358 0.0 2.0 0.08 1.55 1.51 89 1008.6
20260506193145 54 1 0.0 2.0 0.09 1.55 1.51 89 1008.7
20260506193045 54 350 0.0 1.0 0.10 1.55 1.51 89 1008.7
20260506192945 55 345 0.0 1.0 0.09 1.55 1.51 89 1008.7
20260506192844 55 341 0.0 1.0 0.10 1.55 1.51 88 1008.7
20260506192746 55 339 0.0 1.0 0.10 1.55 1.51 89 1008.7
20260506192644 55 339 0.0 2.0 0.11 1.55 1.51 89 1008.7
20260506192545 55 338 0.0 2.0 0.11 1.55 1.51 89 1008.5
20260506192444 55 337 0.0 2.0 0.11 1.55 1.51 88 1008.6
20260506192344 55 336 1.0 2.0 0.11 1.55 1.51 88 1008.6
20260506192245 55 336 1.0 2.0 0.11 1.55 1.51 88 1008.5
20260506192144 55 334 1.0 2.0 0.11 1.55 1.51 88 1008.5
20260506192044 55 335 1.0 2.0 0.11 1.55 1.51 88 1008.4
20260506191944 55 335 1.0 2.0 0.11 1.55 1.51 88 1008.3
20260506191844 55 333 1.0 2.0 0.11 1.55 1.51 88 1008.4
20260506191743 55 330 1.0 2.0 0.11 1.55 1.51 88 1008.4
20260506191449 55 319 1.0 2.0 0.11 1.55 1.51 87 1008.4
20260506191348 55 308 1.0 2.0 0.11 1.55 1.51 87 1008.3
20260506191247 55 288 1.0 3.0 0.11 1.54 1.50 87 1008.4
20260506191146 55 270 1.0 3.0 0.11 1.54 1.50 87 1008.4
20260506191048 55 256 1.0 3.0 0.11 1.54 1.50 86 1008.4
20260506190948 55 240 2.0 6.0 0.11 1.54 1.50 86 1008.3
20260506190846 55 227 2.0 6.0 0.11 1.54 1.50 86 1008.3
20260506190748 55 217 2.0 6.0 0.11 1.54 1.50 86 1008.3
20260506190647 55 211 2.0 6.0 0.11 1.54 1.50 85 1008.4
20260506190547 55 208 3.0 6.0 0.11 1.54 1.50 85 1008.3
20260506190447 55 206 3.0 6.0 0.10 1.53 1.49 85 1008.2
20260506190349 55 204 3.0 6.0 0.10 1.53 1.49 85 1008.2
20260506190247 55 203 4.0 7.0 0.10 1.53 1.49 84 1008.3
20260506190147 55 203 4.0 7.0 0.10 1.53 1.49 84 1008.2
20260506190047 55 202 4.0 7.0 0.10 1.53 1.49 84 1008.2
20260506185946 55 200 4.0 7.0 0.09 1.52 1.48 84 1008.2
20260506185848 55 200 4.0 7.0 0.09 1.52 1.48 84 1008.1
20260506185748 55 199 4.0 7.0 0.09 1.52 1.48 84 1008.1
20260506185647 55 198 4.0 7.0 0.08 1.51 1.48 84 1008.2
20260506185547 55 198 4.0 7.0 0.08 1.51 1.48 83 1008.2
20260506185447 55 198 3.0 7.0 0.08 1.51 1.48 83 1008.1
20260506185347 55 199 3.0 7.0 0.08 1.51 1.48 83 1008.0
20260506185248 56 197 3.0 6.0 0.08 1.51 1.48 82 1008.0
20260506185147 56 197 2.0 6.0 0.08 1.51 1.48 82 1008.1
20260506185047 56 196 2.0 6.0 0.07 1.51 1.47 82 1008.1
20260506184949 56 197 1.0 4.0 0.07 1.51 1.47 82 1008.0
20260506184848 56 197 1.0 3.0 0.07 1.51 1.47 82 1008.0
20260506184746 56 199 1.0 3.0 0.07 1.51 1.47 82 1008.0
20260506184647 56 203 0.0 3.0 0.07 1.50 1.46 81 1007.8
20260506184547 56 213 0.0 3.0 0.07 1.50 1.46 81 1007.7
20260506184447 56 217 0.0 3.0 0.07 1.50 1.46 81 1007.7
20260506184348 57 225 0.0 3.0 0.07 1.50 1.46 81 1007.7
20260506184248 57 229 0.0 3.0 0.07 1.50 1.46 81 1007.7
20260506184147 57 234 0.0 3.0 0.06 1.49 1.45 80 1007.8
20260506184047 57 239 0.0 3.0 0.06 1.49 1.45 79 1007.8
20260506183947 57 235 0.0 3.0 0.06 1.49 1.45 79 1007.6
20260506183847 57 227 0.0 3.0 0.06 1.49 1.45 79 1007.7
20260506183747 57 215 1.0 3.0 0.05 1.48 1.44 78 1007.7
20260506183647 57 209 1.0 3.0 0.05 1.48 1.44 78 1007.6
20260506183546 57 206 1.0 2.0 0.04 1.48 1.44 77 1007.4
20260506183448 58 209 1.0 2.0 0.04 1.48 1.44 77 1007.5
20260506183348 58 211 1.0 2.0 0.03 1.47 1.43 77 1007.5
20260506183248 58 214 1.0 2.0 0.03 1.47 1.43 76 1007.4
20260506183147 58 220 1.0 2.0 0.03 1.46 1.42 76 1007.3
20260506183047 58 222 1.0 2.0 0.02 1.45 1.41 76 1007.3
20260506182946 58 236 1.0 3.0 0.02 1.45 1.41 75 1007.4
20260506182848 58 245 1.0 3.0 0.01 1.44 1.40 75 1007.2
20260506182748 58 266 1.0 3.0 0.00 1.44 1.40 75 1007.3
20260506182646 58 281 1.0 3.0 0.00 1.44 1.40 74 1007.3
20260506182548 58 286 1.0 3.0 0.00 1.44 1.40 74 1007.2
20260506182448 58 287 1.0 3.0 0.00 1.44 1.40 74 1007.2
20260506182346 58 280 1.0 3.0 0.00 1.43 1.39 75 1007.2
20260506182247 58 284 1.0 3.0 0.00 1.43 1.39 75 1007.1
20260506182147 58 300 1.0 3.0 0.00 1.43 1.39 75 1007.1
20260506182047 58 315 1.0 3.0 0.00 1.43 1.39 75 1007.1
20260506181951 58 323 1.0 3.0 0.00 1.43 1.39 75 1007.2
20260506181852 58 326 1.0 4.0 0.00 1.43 1.39 75 1007.1
20260506181750 58 323 1.0 4.0 0.00 1.43 1.39 74 1007.1
20260506181651 58 324 2.0 7.0 0.00 1.43 1.39 74 1007.1
20260506181551 58 322 2.0 7.0 0.00 1.43 1.39 74 1007.1
20260506181451 58 324 2.0 7.0 0.00 1.43 1.39 74 1007.2
20260506181352 58 330 2.0 7.0 0.00 1.43 1.39 74 1007.2
20260506181252 58 331 2.0 7.0 0.00 1.43 1.39 74 1007.1
20260506181151 58 328 2.0 7.0 0.00 1.43 1.39 73 1007.1
20260506181051 58 325 3.0 7.0 0.00 1.43 1.39 73 1007.1
20260506180951 58 325 3.0 7.0 0.00 1.43 1.39 73 1007.1
20260506180850 58 326 3.0 7.0 0.00 1.43 1.39 73 1007.1
20260506180752 58 327 2.0 7.0 0.00 1.43 1.39 73 1007.1
20260506180651 58 334 2.0 6.0 0.00 1.43 1.39 73 1007.1
20260506180551 58 337 2.0 6.0 0.00 1.43 1.39 73 1007.1
20260506180451 58 340 2.0 7.0 0.00 1.43 1.39 73 1007.0
20260506180352 58 350 2.0 7.0 0.00 1.43 1.39 73 1007.1
20260506180250 58 13 2.0 7.0 0.00 1.43 1.39 72 1007.1
20260506180152 58 42 2.0 7.0 0.00 1.43 1.39 72 1007.1
20260506180052 58 61 2.0 7.0 0.00 1.43 1.39 72 1007.0
20260506175950 58 73 2.0 7.0 0.00 1.43 1.39 72 1007.0
20260506175851 58 77 2.0 7.0 0.00 1.43 1.39 72 1006.9
20260506175751 58 87 2.0 7.0 0.00 1.43 1.39 72 1006.9
20260506175650 58 92 2.0 7.0 0.00 1.43 1.39 72 1006.9
20260506175550 58 95 2.0 7.0 0.00 1.43 1.39 72 1006.8
20260506175450 58 89 2.0 8.0 0.00 1.43 1.39 72 1006.8
20260506175350 58 85 3.0 8.0 0.00 1.43 1.39 72 1006.8
20260506175251 58 81 3.0 8.0 0.00 1.43 1.39 72 1006.8
20260506175151 58 72 3.0 8.0 0.00 1.43 1.39 72 1006.7
20260506175049 58 63 3.0 8.0 0.00 1.43 1.39 72 1006.7
20260506174951 58 63 3.0 8.0 0.00 1.47 1.39 72 1006.7
20260506174851 58 62 3.0 8.0 0.00 1.47 1.39 72 1006.8
20260506174751 58 56 3.0 8.0 0.00 1.47 1.39 72 1006.7
20260506174652 58 50 3.0 8.0 0.00 1.47 1.39 72 1006.7
20260506174552 58 45 3.0 8.0 0.00 1.47 1.39 71 1006.6
20260506174449 58 37 3.0 8.0 0.00 1.47 1.39 71 1006.6
20260506174351 58 27 3.0 6.0 0.00 1.47 1.39 71 1006.6
20260506174251 58 22 3.0 6.0 0.00 1.47 1.39 72 1006.4
20260506174150 58 17 3.0 6.0 0.00 1.47 1.39 72 1006.4
20260506174052 58 15 3.0 6.0 0.00 1.47 1.39 73 1006.4
20260506173952 58 8 3.0 6.0 0.00 1.47 1.39 73 1006.3
20260506173851 58 357 3.0 6.0 0.00 1.47 1.39 73 1006.3
20260506173751 58 351 3.0 6.0 0.00 1.47 1.39 73 1006.2
20260506173651 58 343 3.0 7.0 0.00 1.47 1.39 73 1006.3
20260506173550 58 340 4.0 7.0 0.00 1.47 1.39 73 1006.2
20260506173450 58 336 4.0 7.0 0.00 1.47 1.39 73 1006.3
20260506173352 58 334 4.0 7.0 0.00 1.47 1.39 73 1006.3
20260506173249 58 332 4.0 7.0 0.00 1.47 1.39 73 1006.2
20260506173151 58 330 4.0 7.0 0.00 1.47 1.39 73 1006.3
20260506173051 58 328 4.0 7.0 0.00 1.47 1.39 73 1006.4
20260506172951 58 328 5.0 9.0 0.00 1.47 1.39 73 1006.3
20260506172851 58 329 5.0 9.0 0.00 1.47 1.39 73 1006.3
20260506172751 58 328 5.0 9.0 0.00 1.47 1.39 73 1006.3
20260506172650 58 328 5.0 9.0 0.00 1.47 1.39 73 1006.2
20260506172552 58 329 5.0 9.0 0.00 1.47 1.39 73 1006.3
20260506172452 58 331 5.0 9.0 0.00 1.47 1.39 74 1006.3
20260506172351 58 330 5.0 9.0 0.00 1.47 1.39 73 1006.3
20260506172252 58 329 5.0 9.0 0.00 1.47 1.39 74 1006.2
20260506172152 58 329 5.0 9.0 0.00 1.47 1.39 73 1006.3
20260506172051 58 328 5.0 9.0 0.00 1.47 1.39 73 1006.3
20260506171951 58 328 5.0 8.0 0.00 1.47 1.39 73 1006.4
20260506171852 58 328 5.0 8.0 0.00 1.47 1.39 73 1006.4
20260506171752 58 329 5.0 8.0 0.00 1.47 1.39 74 1006.4
20260506171652 58 329 4.0 8.0 0.00 1.47 1.39 75 1006.5
20260506171552 58 329 4.0 8.0 0.00 1.47 1.39 74 1006.4
20260506171450 58 328 4.0 8.0 0.00 1.47 1.39 73 1006.5
20260506171351 58 328 4.0 8.0 0.00 1.47 1.39 73 1006.5
20260506171251 58 330 3.0 8.0 0.00 1.47 1.39 73 1006.5
20260506171151 58 329 3.0 8.0 0.00 1.47 1.39 73 1006.6
20260506171051 58 332 2.0 8.0 0.00 1.47 1.39 73 1006.5
20260506170951 58 334 2.0 6.0 0.00 1.47 1.39 72 1006.5
20260506170850 58 335 2.0 6.0 0.00 1.47 1.39 72 1006.5
20260506170752 58 337 1.0 4.0 0.00 1.47 1.39 72 1006.4
20260506170652 58 341 1.0 4.0 0.00 1.47 1.39 72 1006.4
20260506170549 58 343 0.0 4.0 0.00 1.47 1.39 72 1006.4
20260506170451 58 352 0.0 3.0 0.00 1.47 1.39 72 1006.4
20260506170351 58 10 0.0 3.0 0.00 1.47 1.39 71 1006.4
20260506170251 58 111 0.0 2.0 0.00 1.47 1.39 72 1006.4
20260506170150 58 119 0.0 1.0 0.00 1.47 1.39 71 1006.4
20260506170050 58 125 0.0 1.0 0.00 1.47 1.39 71 1006.4
20260506165950 58 134 0.0 1.0 0.00 1.47 1.39 71 1006.3
20260506165851 58 142 0.0 1.0 0.00 1.47 1.39 71 1006.3
20260506165751 58 142 0.0 1.0 0.00 1.47 1.39 72 1006.3
20260506165651 58 143 0.0 1.0 0.00 1.47 1.39 72 1006.3
20260506165551 58 139 0.0 1.0 0.00 1.47 1.39 73 1006.2
20260506165451 58 147 0.0 1.0 0.00 1.47 1.39 73 1006.3
20260506165350 58 162 0.0 1.0 0.00 1.47 1.39 73 1006.2
20260506165251 58 277 0.0 1.0 0.00 1.47 1.39 74 1006.2
20260506165151 58 301 0.0 1.0 0.00 1.47 1.39 74 1006.2
20260506165051 58 310 0.0 1.0 0.00 1.47 1.39 73 1006.2
20260506164951 58 325 0.0 2.0 0.00 1.47 1.39 73 1006.1
20260506164850 58 332 0.0 2.0 0.00 1.47 1.39 72 1006.1
20260506164750 58 329 1.0 4.0 0.00 1.47 1.39 71 1006.0
20260506164652 58 333 1.0 4.0 0.00 1.47 1.39 71 1006.0
20260506164552 58 335 1.0 6.0 0.00 1.47 1.39 71 1006.0
20260506164449 58 335 2.0 6.0 0.00 1.47 1.39 70 1006.0
20260506164351 58 337 2.0 7.0 0.00 1.47 1.39 70 1006.0
20260506164251 58 336 3.0 7.0 0.00 1.47 1.39 70 1006.0
20260506164151 58 338 3.0 7.0 0.00 1.47 1.39 70 1006.0
20260506164051 58 338 3.0 7.0 0.00 1.47 1.39 70 1006.1
20260506163951 58 339 4.0 9.0 0.00 1.47 1.39 70 1006.2
20260506163850 58 344 4.0 9.0 0.00 1.47 1.39 70 1006.2
20260506163752 58 352 4.0 9.0 0.00 1.47 1.39 71 1006.2
20260506163652 58 4 4.0 9.0 0.00 1.47 1.39 70 1006.2
20260506163549 58 19 5.0 10.0 0.00 1.47 1.39 70 1006.1
20260506163451 58 37 5.0 10.0 0.00 1.47 1.39 70 1006.1
20260506163350 59 51 5.0 11.0 0.00 1.47 1.39 69 1006.2
20260506163250 59 56 5.0 13.0 0.00 1.47 1.39 68 1006.2
20260506163151 59 61 6.0 13.0 0.00 1.47 1.39 67 1006.1
20260506163051 59 64 6.0 13.0 0.00 1.47 1.39 67 1006.2
20260506162951 59 67 6.0 13.0 0.00 1.47 1.39 67 1006.2
20260506162852 59 67 6.0 13.0 0.00 1.47 1.39 66 1006.2
20260506162752 59 65 6.0 13.0 0.00 1.47 1.39 65 1006.2
20260506162650 59 62 6.0 13.0 0.00 1.47 1.39 65 1006.2
20260506162552 59 61 6.0 13.0 0.00 1.47 1.39 65 1006.0
20260506162452 59 57 6.0 13.0 0.00 1.47 1.39 65 1006.0
20260506162351 59 56 5.0 13.0 0.00 1.47 1.39 66 1005.9
20260506162252 59 63 5.0 11.0 0.00 1.47 1.39 66 1005.8
20260506162152 59 64 5.0 10.0 0.00 1.47 1.39 66 1005.8
20260506162050 59 63 5.0 10.0 0.00 1.47 1.39 66 1005.8
20260506161952 59 65 5.0 11.0 0.00 1.47 1.39 66 1005.8
20260506161851 59 68 6.0 11.0 0.00 1.47 1.39 66 1005.7
20260506161751 59 71 6.0 11.0 0.00 1.47 1.39 67 1005.7
20260506161652 59 73 6.0 12.0 0.00 1.47 1.39 67 1005.7
20260506161552 59 74 6.0 12.0 0.00 1.47 1.39 68 1005.7
20260506161450 58 75 6.0 12.0 0.00 1.47 1.39 68 1005.7
20260506161351 58 73 7.0 12.0 0.00 1.47 1.39 68 1005.6
20260506161251 58 71 7.0 12.0 0.00 1.47 1.39 67 1005.6
20260506161151 58 72 7.0 12.0 0.00 1.47 1.39 67 1005.6
20260506161051 58 75 7.0 12.0 0.00 1.47 1.39 67 1005.6
20260506160951 58 76 7.0 12.0 0.00 1.47 1.39 67 1005.6
20260506160850 58 75 7.0 12.0 0.00 1.47 1.39 67 1005.6
20260506160752 58 68 7.0 12.0 0.00 1.47 1.39 68 1005.7
20260506160651 58 65 5.0 6.0 0.00 1.47 1.39 69 1005.6
20260506160551 58 76 5.0 6.0 0.00 1.47 1.39 69 1005.7
20260506160451 58 81 4.0 6.0 0.00 1.47 1.39 69 1005.6
20260506160350 58 97 6.0 6.0 0.00 1.47 1.39 69 1005.6